sat.trackr.live / text

‹ back to catalog

STARLINK-34535

NORAD 64698 · 2025-142C

PAYLOAD ACTIVE UNKNOWN

§ Identity

Operator
Country
US
Launch date
2025-06-28
Launch site
AFWTR
Launch vehicle
Mass (kg)
RCS (m²)

Purposes: comms

External: N2YO · Heavens-Above · Gunter

§ Orbital elements

Epoch: 2026-05-25T02:30:10.340640Z

Period
96.11 min
Inclination
70.0004°
Eccentricity
0.0004354
Mean motion
14.98327669 rev/d
Perigee alt
569.0 km
Apogee alt
575.1 km
Semi-major
6,950.2 km
B*
-6.0535e-5
RAAN
121.8999°
Arg perigee
264.5062°
Mean anomaly
95.5600°
Rev number
5,091

§ Raw data

STARLINK-345351 64698U 25142C   26145.10428635 -.00000815  00000+0 -60535-4 0  99922 64698  70.0004 121.8999 0004354 264.5062  95.5600 14.98327669 50911

JSON: /api/v1/satellites/64698 · /tle

For live sub-satellite position, see the globe view (requires WebGL).

§ Visibility from observer

Set your observer location to see the next 7 days of passes ≥ 10°. The values pass through the URL so the page stays shareable.

No JS? Fill the form by hand. The geolocation button needs JavaScript.